Regional Weather Roundup
Issued by NWS Wakefield, VA

Home | Current Version | Previous Version | Text Only | Print | Product List | Glossary Off
Versions: 1 2 3 4 5 6 7 8 9 10 11 12 13 14 15 16 17 18 19 20 21 22 23 24 25 26 27

000
ASUS41 KAKQ 240015
RWRAKQ

REGIONAL WEATHER ROUNDUP
NATIONAL WEATHER SERVICE WAKEFIELD VA
800 PM EDT SUN JUL 23 2017

Note: "fair" indicates few or no clouds below 12,000 feet with no
significant weather and/or obstructions to visibility. * = Denotes
station may not report precipitation (e.g., rain,snow,etc.),
thunder or fog.

VAZ042-051-052>054-056-240100-
NORTHERN VIRGINIA

CITY           SKY/WX    TMP DP  RH WIND       PRES   REMARKS
WASH NATIONAL  MOCLDY    77  72  84 CALM      29.77S
DULLES         MOCLDY    77  71  82 E3        29.77R
FORT BELVOIR   PTCLDY    77  70  79 CALM      29.76R
QUANTICO       LGT RAIN  86  80  82 MISG      29.75R HX 101
FREDERICKSBRG* CLEAR     84  78  81 MISG      29.74R HX  95
STAFFORD*      PTCLDY    85  75  70 E3        29.79S
WARRENTON      PTCLDY    83  72  69 CALM      29.75R
CULPEPER*      CLOUDY    83  75  76 CALM      29.76S
MANASSAS*      PTCLDY    83  76  79 E7        29.76R
LEESBURG*      PTCLDY    77  77 100 E6        29.79R
WINCHESTER     PTCLDY    79  73  83 SE5       29.78R
FRONT ROYAL*   PTCLDY    82  68  61 CALM      29.77R
LURAY*         CLEAR     82  68  61 SW7       29.78R
$$

VAZ048-049-060>072-079>083-240100-
CENTRAL AND SOUTH CENTRAL VIRGINIA

CITY           SKY/WX    TMP DP  RH WIND       PRES   REMARKS
RICHMOND       PTCLDY    87  70  56 E8        29.76R
CHESTERFIELD*  FAIR      88  69  53 SW3       29.77S
PETERSBURG*    CLEAR     86  69  56 CALM      29.78R
HANOVER        CLEAR     79  76  90 CALM      29.76F FOG
TAPPAHANNOCK*  CLEAR     85  66  53 E3        29.77S
QUINTON*       FAIR      85  73  66 CALM      29.75S
CHARLOTTSVILLE PTCLDY    89  69  51 SW5       29.77R
GORDONSVILLE*  PTCLDY    84  75  74 CALM      29.75S
ORANGE*        PTCLDY    84  73  70 CALM      29.76S
LOUISA*        CLEAR     88  66  48 CALM      29.77S
BUMPASS*       FAIR      82  74  78 CALM      29.75S
FARMVILLE*     CLEAR     89  62  41 CALM      29.76S
CREWE*         FAIR      82  70  66 CALM      29.78R
FORT PICKETT*  FAIR     N/A N/A N/A CALM      29.78R
CHASE CITY*    FAIR      89  69  50 CALM      29.79F
CLARKSVILLE*   FAIR      82  68  61 SW14G23   29.80S
SOUTH HILL*    CLEAR     89  71  55 SW5       29.84R
LAWRENCEVILLE* FAIR      87  73  62 SE5       29.77R
EMPORIA*       CLOUDY    81  72  74 SE12G22   29.81R
$$

VAZ088>098-240100-
SOUTHEAST VIRGINIA

CITY           SKY/WX    TMP DP  RH WIND       PRES   REMARKS
NORFOLK        CLOUDY    85  75  72 S6        29.76S
VIRGINIA BEACH CLOUDY    81  72  74 S6        29.76S THUNDER
NORFOLK NAVAL  CLOUDY    86  75  69 S6        29.77S HX  95
WEST POINT*    PTCLDY    85  75  70 NE5       29.77R
SALUDA*        FAIR      84  77  81 E7        29.76S
NEWPORT NEWS   CLOUDY    87  76  69 S6        29.77R HX  97
LANGLEY AFB    CLOUDY    87  76  68 SE6       29.76S HX  98
FORT EUSTIS    PTCLDY    89  79  72 S7        29.75R HX 103
WILLIAMSBURG*  MOCLDY    90  79  70 S5        29.77R HX 105
HR EXEC AP*    FAIR      81  73  78 SW10G18   29.77R THUNDER
FRANKLIN*      CLOUDY    81  72  74 S8        29.80R
US460-WAKEFLD  PTCLDY    88  79  74 S9        29.78R THUNDER HX 103
$$

VAZ020-022-025-037-045-240100-
WEST CENTRAL AND SOUTHWEST VIRGINIA

CITY           SKY/WX    TMP DP  RH WIND       PRES   REMARKS
STAUNTON*      MOCLDY    83  66  56 SW5       29.84R
WAYNESBORO*    MOCLDY    82  67  59 SW5       29.84F
HOT SPRINGS VA PTCLDY    70  52  52 CALM      30.00S
LYNCHBURG      CLEAR     82  69  64 CALM      29.81S
DANVILLE       CLOUDY    79  71  76 SW12G17   29.82R
SOUTH BOSTON*  FAIR      84  69  59 S15       29.80S
MARTINSVILLE   CLOUDY    78  67  69 SW3       29.88R
ROANOKE        MOCLDY    87  64  46 W8        29.85R
BLACKSBURG     CLOUDY    82  60  47 CALM      29.93S
DUBLIN*        CLOUDY    83  54  36 SW3       29.91F
MARION*        PTCLDY    79  68  68 SW3       29.96F
HILLSVILLE*    CLOUDY    79  59  49 CALM      29.94F
RICHLANDS*     CLOUDY    78  69  75 CALM      29.93F
WISE*          CLOUDY    77  68  73 S3        29.92F
ABINGDON*      MOCLDY    83  72  68 SW8       29.89F
$$

MDZ021>025-VAZ099-100-240100-
SOUTHERN MARYLAND AND THE DELMARVA PENINSULA

CITY           SKY/WX    TMP DP  RH WIND       PRES   REMARKS
PATUXENT RIVER CLEAR     81  76  84 SE6       29.76S
BAY BRIDGE APT CLOUDY    77  75  94 NE3       29.77S
LEONARDTOWN    PTCLDY    81  73  78 SE3       29.78S
DOVER          MOCLDY    78  78 100 E8        29.77R
GEORGETOWN     PTCLDY    80  75  84 E6        29.79S
EASTON         MOCLDY    81  75  83 E6        29.82R
CAMBRIDGE      PTCLDY    81  75  83 CALM      29.78R
SALISBURY      PTCLDY    79  77  94 SE3       29.78S
OCEAN CITY     CLOUDY    77  75  93 S5        29.79S
WALLOPS ISLAND CLOUDY    79  74  84 E6        29.78F
ACCOMACK*      CLOUDY    80  77  90 SE6       29.76F
$$

NCZ012>017-030>032-240100-
NORTH CENTRAL AND EASTERN NORTH CAROLINA

CITY           SKY/WX    TMP DP  RH WIND       PRES   REMARKS
ROANOKE RAPIDS FAIR      77  70  78 S5        29.79F
RALEIGH        LGT RAIN  72  69  90 SW12      29.82F
ELIZABETH CITY CLOUDY    83  81  94 S14G22    29.78R HX  97
AHOSKIE*       NOT AVBL
EDENTON*       CLOUDY    89  79  72 SW16      29.82R HX 104
CURRITUCK*     CLOUDY    79  77  91 CALM      29.78F
KILL DEVIL HLS CLOUDY    83  77  83 SW8       29.79R
MANTEO         CLOUDY    84  78  82 SW21G26   29.80R HX  95
CAPE HATTERAS  CLEAR     79  75  87 SW10      29.85S
TARBORO*       NOT AVBL
GOLDSBORO      MOCLDY    84  74  73 SW15      29.84R
WASHINGTON     CLEAR     86  77  73 SW12G17   29.81R HX  97
GREENVILLE     PTCLDY    88  79  74 SW15      29.84R HX 102
NEW BERN       CLEAR     83  78  85 SW9       29.85R
WILMINGTON     PTCLDY    82  76  81 SW14G23   29.90R
$$

VAZ048-240100-
ELSEWHERE

CITY           SKY/WX    TMP DP  RH WIND       PRES   REMARKS
HARRISBURG PA  CLOUDY    74  73  97 SE8       29.76R
BALTIMORE      CLOUDY    77  76  96 CALM      29.77R
ANNAPOLIS      LGT RAIN  78  77  96 E3        29.76S
ANDREWS AFB    PTCLDY    74  71  91 NE5       29.77R
PHILADELPHIA   RAIN      74  70  87 E9        29.81R FOG
HENDERSON NC   CLOUDY    77  66  70 SW12      29.84R
GREENSBORO     CLOUDY    73  72  96 SW5       29.87R
ROCKY MOUNT    HVY RAIN  72  71  97 W24G38    29.89R VSB 3/4
$$

VAZ100-240100-
MARINE

STATION/POSITION TIME  TEMP    WIND        PRES    WAVE   SWELL
                       AIR SEA DIR/SP/G            HT/PER HT/PER
                 (UTC) (F)     (DEG/KT/KT) (MB)    (FT/S) (FT/S)
BRANDYWINE LGT   2348          100/  6/  6 1008.9R
CAPE MAY NJ      2348   76 77  100/  5/  6 1008.0F
LEWES DE         2348   78 76  160/  4/  6 1008.3F
15NM E FENWICK I 2250   78 78  170/  6/  8 1009.2    3/ 7   3/ 7
OCEAN-CITY-INLET 2348   74 71  200/  3/  4 1009.2F
WACHAPREAGUE VA  2348   80 84  140/  3/  5 1007.7F
THOMAS POINT MD  0000   79 83   40/  5/  6   N/A
COVE POINT MD    2348   81     170/  7/  9 1008.6R
SOLOMONS ISLAND  2348   82 86  150/  7/  8   N/A
BISHOPS HEAD MD  2348   83 87  100/  6/  8 1008.2S
PINEY POINT MD   2348          120/ 10/ 10   N/A
CAMBRIDGE MD     2348   82 88              1009.1R
LEWISETTA VA     2348   84 87  120/  6/  6 1007.4F
RAPPAHANNOCK LGT 2348          110/ 10/ 12 1008.2F
YORK RVR RNG VA  2348   85     170/ 11/ 12 1008.2R
YORKTOWN VA      2348   87 83  110/  5/  7 1007.5R
DOMINION TERM VA 2348   85     170/ 10/ 10 1008.2R
KIPTOPEKE VA     2348      82  160/  7/  8   N/A
CHES BAY BRIDGE  2348   83 77  180/  7/ 10 1008.0R
CAPE HENRY VA    2348   80     160/ 10/ 13   N/A
WILLOUBY STN VA  2348   86     180/  9/  9 1008.1R
S CRANEY ISL VA  2348   86     210/  3/  5 1008.1R
CAPE HENRY BUOY  2330      73                N/A     3/11
64NM E OF VA BCH 2350   80 80  210/ 16/ 19 1008.9    4/ 7   2/10
DUCK PIER NC     2348   85 60  190/ 15/ 17 1008.3R
44100 DUCK FRF   2305      73                N/A     3/ 5
44056 DUCK FRF   0000      63                N/A     3/10
OREGON INLET NC  2348          190/ 22/ 28 1009.2F
HATTERAS NC      2348   79 78  220/ 10/ 13 1010.6R
DIAMOND SHLS NC  2350   84 84  210/ 21/ 25 1010.1    7/ 7
CAPE LOOKOUT NC  2300   83     210/ 12/ 18 1010.8F
$$




USA.gov is the U.S. government's official web portal to all federal, state and local government web resources and services.